Weather in Zamora

Mexico     19°59′20″N   102°17′06″W
temp.,
°C
wind,
m/s
gust,
m/s
humid.,
%
clouds,
%
prec.,
mm/h
press.,
hPa
HPBL,
m
15 april, thu
thu1501:00+16s22445 0.0 101724
04:00+14se21435 0.0 101614
07:00+14sse21405 0.0 101714
10:00+24nw11220 0.0 1016517
13:00+30nnw33152 0.0 10112913
16:00+32nw431119 0.0 10064089
19:00+29wsw451350 0.0 10062782
22:00+19ssw35250 0.0 1011100
16 april, fri
fri1601:00+16s22351 0.0 101435
04:00+14se11380 0.0 101312
07:00+13sse22380 0.0 101414
10:00+24nw11250 0.0 1013514
13:00+30nnw34140 0.0 10092836
16:00+32wsw54115 0.0 10044063
19:00+29sw56142 0.0 10051594
22:00+19s34230 0.0 101092
17 april, sat
sat1701:00+15ssw21372 0.0 101317
04:00+14s22450 0.0 101216
07:00+13sse11500 0.0 101411
10:00+24n01240 0.0 1013565
13:00+31w35110 0.0 10083062
16:00+31sw76121 0.0 10052954
19:00+27sw57135 0.0 10071572
22:00+18s34295 0.0 101173
18 april, sun
sun1801:00+14ssw21390 0.0 101418
04:00+13sse22490 0.0 101317
07:00+12sse21550 0.0 101413
10:00+22wnw11294 0.0 1013637
13:00+30wnw35114 0.0 10092679
16:00+29wsw6610100 0.0 10062590
19:00+26wsw56100 0.0 10081351
22:00+16s332361 0.0 101359
19 april, mon
mon1901:00+13s22308 0.0 101521
04:00+11sse22373 0.0 101517
07:00+10sse21382 0.0 101514
10:00+22nw11195 0.0 1014564
13:00+29w46724 0.0 10092591
16:00+29wsw667100 0.0 10072455
19:00+25sw4610100 0.0 10081193
22:00+17s3322100 0.0 101269